Location: Gro�wechsungen
(51.4926°N, 10.6901°E)
Time: 01:15:07
(UTC+00:00)

Cosmos 1937 Rocket - Pass Details

Date: 18 September 2020
Orbit: 747 x 779 km, 74.0° (Epoch: 23 October)

Event Time Altitude Azimuth Distance (km) Brightness Sun altitude
Rises 18:54:56 0° 212° (SSW) 3,234 6.9 -14.6°
Reaches altitude 10° 18:57:20 10° 215° (SW) 2,307 6.1 -15.0°
Maximum altitude 19:02:32 66° 298° (WNW) 837 3.9 -15.7°
Drops below altitude 10° 19:07:44 10° 21° (NNE) 2,301 6.0 -16.5°
Sets 19:10:08 0° 24° (NNE) 3,225 6.8 -16.8°
